Regional Weather Roundup
Issued by NWS Cleveland, OH

Home | Current Version | Previous Version | Graphics & Text | Print | Product List | Glossary Off
Versions: 1 2 3 4 5 6 7 8 9 10 11 12 13 14 15 16 17 18 19 20 21 22 23 24 25 26 27 28 29 30 31 32 33 34 35 36 37 38 39 40 41 42 43 44 45 46 47 48 49 50

000
ASUS41 KCLE 051900
RWRCLE
OHIO REGIONAL WEATHER ROUNDUP
NATIONAL WEATHER SERVICE WILMINGTON, OH
200 PM EST THU MAR 05 2015

NOTE: "FAIR" INDICATES FEW OR NO CLOUDS BELOW 12,000 FEET WITH NO
SIGNIFICANT WEATHER AND/OR OBSTRUCTIONS TO VISIBILITY.

OHZ001>008-015>018-024>027-034-035-043-044-052000-
   NORTHWEST OHIO

CITY           SKY/WX    TMP DP  RH WIND       PRES   REMARKS
DEFIANCE       CLOUDY    19   3  49 N12       30.41S WCI   7
FINDLAY        SUNNY     19   4  51 NW12      30.37S WCI   7
TOLEDO EXPRESS SUNNY     16   3  56 NW8       30.40S WCI   5
TOLEDO EXEC    CLOUDY    16   7  67 E5        30.40F WCI   9
LIMA           SUNNY     18   4  54 N10       30.36F WCI   6
$$

OHZ009>014-019>023-028>033-038-089-052000-
   NORTHEAST OHIO

CITY           SKY/WX    TMP DP  RH WIND       PRES   REMARKS
CLE-HOPKINS    MOSUNNY   14   2  58 N10       30.39S WCI   1
CLE-LAKEFRONT  MOSUNNY   14   2  58 N7        30.38F WCI   4
CUY CO. ARPT   MOSUNNY   16   3  57 N9        30.36F WCI   4
LORAIN-ELYRIA  MOSUNNY   13   2  61 N12       30.37S WCI  -1
ASHTABULA      PTSUNNY   11  -2  56 N8        30.34F WCI  -1
AKRON-CANTON   PTSUNNY   17   1  49 N12       30.28F WCI   4
WOOSTER        NOT AVBL
MANSFIELD      PTSUNNY   16   4  59 NW14G23   30.30F WCI   2
YOUNGSTOWN     PTSUNNY   13  -2  51 N13       30.29S WCI  -2
$$

OHZ042-051>053-060>062-070>072-077>081-052000-
  SOUTHWEST OHIO

CITY           SKY/WX    TMP DP  RH WIND       PRES   REMARKS
CINC-COVINGTON PTSUNNY   23   7  50 N9        30.37R WCI  13
CINC-LUNKEN    CLOUDY    23   5  46 N15       30.41S WCI  10
HAMILTON       PTSUNNY   23   5  46 N9        30.40S WCI  13
DAYTON         NOT AVBL
WRIGHT-PAT AFB NOT AVBL
DAYTON GENERAL PTSUNNY   22   4  46 NW12      30.35S WCI  10
WILMINGTON     CLOUDY    19   3  49 NW10      30.33S WCI   7
$$

OHZ036-037-039>041-045>050-054>059-063>069-073>076-082>088-052000-
  CENTRAL AND SOUTHEAST OHIO

CITY           SKY/WX    TMP DP  RH WIND       PRES   REMARKS
COLUMBUS       CLOUDY    20   5  52 NW12      30.34S WCI   8
OSU AIRPORT    CLOUDY    19   6  57 N8        30.34F WCI   9
BOLTON FIELD   CLOUDY    19   7  58 NW12      30.35R WCI   7
RICKENBACK AFB NOT AVBL
NEWARK         CLOUDY    21   4  47 NW6       30.32S WCI  13
MARION         CLOUDY    18   6  59 N10       30.35S WCI   6
LANCASTER      CLOUDY    21   6  52 N7        30.33R WCI  12
ZANESVILLE     CLOUDY    19   5  54 NW8       30.30F WCI   9
NEW PHILLY     CLOUDY    19   2  47 NE7       30.31F WCI  10
$$


USA.gov is the U.S. government's official web portal to all federal, state and local government web resources and services.